DECAYED

FENGYUN 1C DEB, 31850 (Decayed)

Orbit data source: Space-Track

FENGYUN 1C DEB, 31850 was space debris in SSO originally from a launch on Mon, 10 May 1999 UTC launched from the Taiyaun Space Center, China (TSC). Fengyun 1C debris stems from the Chinese weather satellite Fengyun-1C, which was intentionally destroyed by a Chinese anti-satellite missile in 2007. This event dramatically increased the amount of space debris, with thousands of trackable fragments posing hazards to satellites and human spaceflight. The Fengyun 1C debris cloud has become a focal point in discussions about space sustainability and the need for international regulations to prevent the creation of new debris.

Not visible in the next 10 days
Identifier
31850, 1999-025CJQ
Orbit
Decayed
Country
Flag of CNCN / PRC
Related business
Manufacturer
Unknown
Mission
Decayed spacecraft
Bus & Motor
Unknown
Mass
Unknown
Launch date (UTC)
1999-05-10 (27 years ago)
Launch vehicle
Unknown
Launch site
Taiyaun Space Center, China (TSC)
Object type
Payload
Rocket body
Debris
Shape & HBR
Unknown shape, 0.1 m
Radar Cross Section
Small (<0.1 m²)

Expand to show TLE details & history
Last TLE update: 5 months ago

TLE from 5 months ago
0 FENGYUN 1C DEB
1 31850U 99025CJQ 26029.41083296  .00253000  00000-0  45020-2 0  9997
2 31850  98.5621  87.0115 0055319 282.7181  76.7886 15.47555110665625
Epoch: 2026-01-29T09:51Z
TLE epoch observation values (Epoch: 2026-01-29T09:51:35.967Z)
Latitude
0.00001°
Longitude
170.44771°
Altitude
418.568 km
Speed
7.665 km/s
True Right ascension
05h 48m 02s
True Declination
0° 00' 00"
Sunlit
Object was in full shadow at epoch
Visualization orbit readout
Latitude
Unknown
Longitude
Unknown
Altitude
Unknown
Speed
Unknown
Apparent Right ascension
Unknown
Apparent Declination
Unknown
Sunlit
N/A
Visualization observer readout
Local Sidereal Time
23:25:42
Azimuth
Unknown
Elevation
Unknown
Doppler factor
Unknown
Orbital elements
Apogee altitude
458.475 km
Perigee altitude
383.252 km
Semi-major axis
6,799.001 km
Eccentricity
0.00553
Inclination
98.5621°
RAAN
87.0115°
Arg. of periapsis
282.7181°
True anomaly
77.4067°
Mean anomaly
76.7886°
Eccentric anomaly
77.09755°
Mean motion
3.87147 °/min
Orbital period
92.99 mins
BSTAR
0.004502
Loading maneuver chart data...
Computing Atmospheric mass density...

Documentation

Showing up to 5 results
|